Hourly Weather Roundup
Issued by NWS Central Illinois

Home | Current Version | Previous Version | Text Only | Print | Product List | Glossary On
Versions: 1 2 3 4 5 6 7 8 9 10 11 12 13 14 15 16 17 18 19 20 21 22 23 24 25 26 27 28 29 30 31 32 33 34 35 36 37 38 39 40 41 42 43 44 45 46 47 48 49 50
000
NZUS43 KILX 240810
HWRILX

AREA WEATHER ROUNDUP
NATIONAL WEATHER SERVICE, LINCOLN IL
300 AM CDT SUN MAY 24 2015


CITY           SKY/WX    TMP DP  RH WIND       PRES   REMARKS
BLOOMINGTON    CLOUDY    66  51  58 S6        30.19S
CHAMPAIGN      CLOUDY    65  52  62 SE5       30.19R
DANVILLE       CLOUDY    63  50  62 SE6       30.18S
DECATUR        CLOUDY    65  51  60 SE7       30.17S
EFFINGHAM      CLOUDY    61  51  71 CALM      30.19F
FLORA          MOCLDY    62  53  72 SE5       30.17F
GALESBURG      CLOUDY    64  53  67 E5        30.14F
JACKSONVILLE   CLOUDY    68  53  58 SE7       30.13F
LACON          HVY RAIN  62  54  74 S6        30.18R
LAWRENCEVILLE  MOCLDY    61  53  75 E7        30.19S
LITCHFIELD     CLOUDY    64  50  61 SE8       30.15S
$$


CITY           SKY/WX    TMP DP  RH WIND       PRES   REMARKS
LINCOLN        CLOUDY    67  51  56 S3        30.15S
MACOMB         CLOUDY    66  52  59 SE5       30.15F
MATTOON        CLOUDY    63  50  62 SE5       30.18R
MT CARMEL AP   MOCLDY    64  52  63 E7        30.18F
OLNEY-NOBLE AP MOCLDY    63  52  67 E5        30.18S
PARIS          CLOUDY    64  51  62 CALM      30.21R
PEORIA         CLOUDY    69  49  48 SE3       30.16S
PONTIAC        CLOUDY    64  53  66 E6        30.19S
RANTOUL        CLOUDY    66  53  61 SE3       30.19S
ROBINSON       MOCLDY    62  53  72 SE6       30.20S
SPRINGFIELD    CLOUDY    70  50  49 SE10      30.15S
TAYLORVILLE    CLOUDY    64  50  59 SE8       30.15F
$$

...REGIONAL REPORTS...


CITY           SKY/WX    TMP DP  RH WIND       PRES   REMARKS
CHICAGO O`HARE MOCLDY    62  47  57 S5        30.19R
KANKAKEE       MOCLDY    59  51  73 SE5       30.20S
MOLINE         LGT RAIN  66  51  58 VRB7      30.13F
MOUNT VERNON   CLOUDY    64  50  59 E5        30.15F
PITTSFIELD     CLOUDY    66  53  63 CALM      30.13S
QUINCY         LGT RAIN  65  54  67 SW8       30.14R
ROCKFORD       CLOUDY    62  49  62 S5        30.20R
$$


CITY           SKY/WX    TMP DP  RH WIND       PRES   REMARKS
BURLINGTON     CLOUDY    68  52  56 SE7       30.12F
CEDAR RAPIDS   CLOUDY    65  51  60 SE5       30.11S
DES MOINES     LGT RAIN  63  56  78 SE12      30.06S
KIRKSVILLE     LGT RAIN  60  59  96 SE12      30.08F
OTTUMWA        LGT RAIN  62  57  83 S14       30.10R
ST LOUIS       CLOUDY    67  54  63 E8        30.11F
$$


CITY           SKY/WX    TMP DP  RH WIND       PRES   REMARKS
TERRE HAUTE    CLOUDY    63  51  65 SE3       30.20S
EVANSVILLE     MOCLDY    61  54  77 NE5       30.19S
INDIANAPOLIS   PTCLDY    61  47  59 SE9       30.21S
LAFAYETTE      PTCLDY    58  49  72 E3        30.20F
MADISON        MOCLDY    53  47  79 CALM      30.17R
MILWAUKEE      PTCLDY    55  39  54 CALM      30.18R
$$




USA.gov is the U.S. government's official web portal to all federal, state and local government web resources and services.